Wind_Speed
10 11 12 13 13 14 15 16 16 17 17 18 18 19 20 21 22 23 24 25 25 26 26 26 26 26 26 26 25 25 25 25 25 25 25 26 26 26 26 26 26 26 26 26 27 27 27 28 28 28 29 29 30 30 30 29 29 28 28 28 27 25 23 22 23 24 24 24 24 24 23 23 24 24 24 24 24 24 25 25 25 25 24 24 24 24
11 11 12 13 14 14 15 16 17 17 18 19 19 20 20 21 21 22 23 23 24 25 25 26 26 25 25 25 24 24 24 25 25 25 25 25 26 26 26 26 26 26 26 26 27 27 27 27 28 28 28 29 29 29 29 29 28 28 27 27 27 25 23 22 23 24 25 25 24 24 24 24 24 24 24 24 24 24 25 25 25 24 24 24 24 24
11 12 12 13 14 14 15 16 16 17 18 19 20 20 21 21 22 22 22 23 23 23 24 24 25 25 24 24 23 23 23 23 24 24 25 25 26 26 26 26 26 26 26 26 26 27 27 27 27 28 28 28 28 29 29 29 28 28 27 27 26 24 22 22 23 25 25 25 25 25 25 25 25 24 24 24 24 24 25 25 25 24 24 24 24 24
11 12 13 13 14 14 15 15 16 17 18 19 20 20 21 21 22 22 22 22 22 22 22 23 23 23 23 22 22 22 22 22 23 24 24 25 25 26 26 26 26 26 26 26 26 26 26 27 27 27 27 27 28 28 28 28 28 28 28 27 26 24 22 22 24 25 25 25 25 25 25 25 25 25 24 24 24 24 25 25 25 24 24 24 24 24
11 12 13 13 14 15 15 16 17 17 18 19 20 20 21 21 21 21 21 21 21 21 21 22 22 22 22 22 21 21 21 21 22 23 24 24 25 25 25 25 26 26 26 26 26 26 26 26 26 26 26 27 27 28 28 28 28 28 28 27 25 23 22 23 24 25 25 25 25 25 25 25 25 25 24 24 24 24 25 25 25 24 24 24 24 24
12 12 13 14 14 15 16 17 18 18 19 19 19 19 20 21 21 21 21 21 20 20 20 20 20 21 21 21 21 21 20 21 21 22 23 24 25 25 25 25 25 26 26 26 26 26 26 26 26 26 26 26 26 27 27 27 27 28 27 26 24 22 22 24 25 25 25 25 25 25 25 25 25 24 24 24 24 25 25 25 25 25 24 24 24 23
12 13 14 14 15 16 17 18 19 20 20 20 20 20 19 20 20 20 20 20 20 19 19 18 18 19 20 21 21 21 20 20 21 21 22 23 24 24 24 25 25 25 25 26 26 26 26 26 26 26 26 26 26 26 26 27 27 27 27 25 23 22 23 24 25 25 25 25 25 25 25 25 24 24 24 23 24 24 25 25 25 25 24 24 24 23
13 14 14 15 16 17 17 18 20 21 22 22 22 22 21 20 19 18 18 19 19 19 19 18 17 17 18 19 21 21 21 21 21 22 23 23 24 24 24 24 24 24 25 25 26 26 26 26 26 26 26 26 26 26 26 26 26 26 26 24 22 22 23 24 25 25 25 25 25 25 25 25 25 24 23 23 24 24 25 25 25 25 24 24 24 23
13 14 15 15 16 17 18 18 19 21 22 23 23 24 23 22 20 18 17 17 18 19 20 20 19 18 18 18 19 21 21 21 22 23 24 25 25 25 25 24 24 24 24 25 25 26 26 26 26 26 26 25 25 25 25 26 26 25 24 22 21 22 23 24 25 25 25 25 25 26 25 25 24 24 24 24 24 24 25 25 25 25 24 24 23 23
14 14 15 16 16 17 18 19 20 20 21 21 22 23 24 24 24 23 21 19 19 19 20 21 22 22 21 19 19 20 21 21 21 22 23 24 25 25 25 25 24 24 24 25 25 26 26 26 26 26 26 25 25 25 25 25 25 24 23 21 21 22 23 24 25 25 25 25 25 25 25 25 24 24 24 24 24 24 24 24 24 24 24 24 23 22
14 15 16 16 17 18 18 19 19 20 20 20 20 21 22 24 26 26 26 25 24 23 21 21 23 24 24 23 22 21 21 21 21 22 22 23 23 24 24 24 24 24 25 25 26 26 27 27 27 26 26 25 25 25 25 25 24 23 21 20 20 22 23 24 25 25 26 25 25 25 25 24 24 23 23 23 24 24 24 24 24 24 24 23 22 21
15 16 16 17 17 18 18 18 19 19 20 20 21 22 24 25 26 27 28 28 28 27 25 24 23 24 25 25 25 24 24 23 23 23 22 23 23 23 23 23 24 24 25 26 26 27 28 28 27 26 26 25 25 24 24 24 23 22 20 20 20 22 23 24 25 25 25 25 25 25 25 24 24 23 23 23 23 24 24 24 24 23 23 23 22 21
15 16 17 17 18 18 18 18 19 20 21 22 24 25 26 26 27 27 28 28 29 29 28 27 26 25 26 26 26 26 26 25 25 24 23 23 24 24 24 24 25 26 27 27 27 28 29 29 28 27 26 25 25 25 24 24 22 21 20 20 20 21 23 24 25 25 25 25 25 25 25 24 23 23 23 23 23 24 24 24 23 23 23 22 21 20
15 16 16 17 18 18 19 20 21 22 23 24 25 25 26 27 28 28 29 29 30 30 30 29 28 28 27 28 28 28 28 27 26 25 23 23 24 25 26 26 26 27 28 29 29 29 30 29 29 28 27 26 25 25 24 23 22 20 20 20 20 21 22 23 24 25 25 25 25 25 24 24 23 23 23 23 23 23 23 23 23 23 22 21 20 20
16 16 17 18 19 20 20 21 22 23 23 24 25 25 26 27 28 30 31 31 32 32 32 32 31 30 29 29 30 30 30 29 28 27 25 24 24 25 26 27 27 28 29 30 30 31 30 30 29 28 27 26 26 25 24 23 21 20 20 20 21 21 22 23 24 24 25 25 25 24 24 24 23 23 23 23 23 23 23 23 22 22 22 21 20 20
16 17 18 19 20 21 21 22 23 23 24 24 25 26 27 29 30 30 31 32 33 34 34 35 36 35 33 31 30 30 31 31 30 29 28 26 26 26 28 29 29 30 30 31 31 32 31 30 29 28 27 27 26 25 24 22 21 20 20 21 21 21 21 22 23 24 24 24 24 24 24 23 23 23 23 23 23 23 23 22 22 22 21 20 19 20
17 17 18 19 20 21 22 22 23 24 24 25 26 26 27 28 29 30 31 32 33 34 34 35 37 38 37 35 33 31 32 32 32 31 30 29 28 28 29 30 31 32 32 32 32 33 32 31 30 28 28 27 26 25 24 22 21 21 21 21 22 21 21 22 23 23 24 24 24 24 23 23 23 23 23 23 22 22 22 22 22 21 21 20 19 20
17 18 19 20 21 22 22 23 24 25 25 26 27 27 27 28 28 29 30 31 32 33 34 34 35 35 37 36 34 33 33 32 33 33 33 32 31 30 31 31 32 33 33 33 34 34 33 31 30 29 28 27 26 25 24 23 22 21 21 22 22 22 21 22 22 23 23 23 23 23 23 23 23 23 23 23 22 22 22 22 22 21 20 19 19 20
18 18 19 20 21 22 23 24 25 25 26 27 28 28 28 28 28 29 29 30 30 31 32 33 33 33 34 34 33 32 32 32 33 35 35 35 34 33 33 33 34 34 34 34 35 35 34 32 30 29 28 27 27 26 24 23 23 22 22 22 22 22 22 22 22 22 22 22 23 23 23 23 22 22 22 22 22 22 22 22 22 21 20 19 20 20
18 19 19 20 21 22 23 24 25 25 26 27 28 29 29 29 29 29 29 29 29 30 30 31 32 32 32 32 32 31 32 33 34 36 37 37 36 35 35 36 36 36 36 35 36 35 35 33 31 30 29 28 28 26 25 24 23 23 23 23 22 22 22 22 21 21 21 22 22 22 22 22 22 22 22 22 22 22 22 22 21 21 20 20 20 21
18 19 19 20 21 22 23 24 24 25 26 27 28 29 29 30 30 29 29 29 29 29 30 30 31 31 31 31 31 31 32 33 35 36 38 39 38 37 36 37 38 38 38 38 37 37 36 34 32 31 31 30 29 27 26 24 24 23 23 23 23 22 22 21 21 21 20 20 21 21 22 22 22 22 22 22 22 22 22 22 21 21 20 20 20 21
18 19 20 20 21 22 23 24 24 25 26 27 28 29 29 30 30 30 30 29 29 29 29 29 29 29 29 30 30 30 32 32 34 36 38 40 40 39 38 38 39 40 40 40 39 38 37 35 34 32 32 32 30 28 26 25 24 24 24 24 23 23 22 22 21 20 20 20 20 21 21 21 22 22 22 22 22 22 22 22 21 20 20 20 20 20
18 19 20 21 22 22 23 24 25 26 27 27 27 28 28 28 29 29 29 29 29 29 29 29 28 28 28 29 30 30 30 32 33 35 37 39 41 41 39 40 41 41 41 41 41 40 39 37 35 34 34 34 32 30 28 26 25 25 25 25 24 23 23 22 21 21 20 19 20 20 20 21 21 21 22 22 22 22 22 21 21 20 20 20 20 20
19 20 20 21 22 23 24 25 26 26 27 27 27 27 27 27 27 28 28 28 29 29 29 29 29 29 30 30 30 29 29 31 33 35 36 38 40 41 41 41 42 43 43 42 42 42 40 39 37 36 36 35 34 31 29 27 26 26 26 26 25 25 24 23 22 21 20 20 20 20 19 19 20 20 21 21 22 22 21 21 20 20 20 20 20 20
19 20 21 22 22 23 24 24 25 25 26 26 27 27 27 27 27 27 27 28 28 29 30 30 31 31 31 32 32 30 29 31 32 34 36 38 40 41 41 41 42 43 44 44 44 43 42 40 39 38 38 37 36 33 30 28 27 27 27 27 26 26 25 24 23 22 21 20 20 19 19 19 19 19 20 20 21 21 20 20 19 19 19 20 20 21
20 20 21 21 22 22 22 23 23 24 24 25 26 26 26 26 26 27 27 27 28 30 31 32 33 33 33 33 33 32 31 31 33 34 36 38 40 41 41 41 42 43 44 45 45 44 43 42 41 40 40 39 37 34 31 29 29 28 28 28 28 27 26 25 25 23 22 22 21 20 20 19 19 19 19 19 19 19 19 18 18 18 19 20 20 21
19 20 20 20 20 21 21 22 22 23 23 24 24 25 26 26 26 27 27 28 29 31 32 34 35 36 36 36 35 34 32 32 33 34 36 37 39 41 41 42 42 43 45 46 46 45 43 42 41 41 41 40 38 35 32 31 30 30 30 29 29 28 27 27 26 25 24 23 22 22 21 20 20 19 18 18 17 17 17 16 16 17 18 20 21 22
18 18 19 19 19 20 21 21 22 23 23 23 24 24 25 26 27 28 28 29 30 31 32 34 35 36 37 37 36 35 34 32 33 34 36 37 38 39 41 42 43 43 44 46 47 46 43 41 41 41 42 41 39 36 33 32 31 31 31 31 30 29 28 28 27 26 26 25 24 23 23 22 21 19 18 17 16 16 15 15 16 17 19 20 22 23
17 18 18 19 20 21 21 22 22 23 23 23 24 24 25 26 27 28 29 30 31 32 33 33 34 35 36 37 37 36 35 32 33 35 37 37 38 39 40 41 42 42 43 46 48 47 44 41 40 41 42 42 40 37 35 33 33 33 32 32 31 30 29 29 28 28 27 27 26 25 25 24 22 20 18 17 16 15 14 15 17 18 20 21 22 22
17 18 19 20 21 21 22 22 23 23 23 23 24 25 25 26 27 28 29 31 31 32 33 33 33 34 35 36 38 37 35 33 33 35 36 37 38 40 41 41 40 40 41 43 44 45 44 44 43 42 43 42 40 38 36 35 34 34 34 33 32 31 30 30 30 29 29 28 28 27 27 25 24 21 19 17 16 15 14 16 18 19 21 21 22 21
18 19 20 21 21 22 22 22 22 23 23 23 24 25 25 26 27 28 30 31 31 32 32 32 32 32 33 34 35 35 35 34 33 35 36 36 37 39 40 40 39 39 38 37 36 38 41 45 47 46 44 43 41 39 37 36 35 35 35 34 33 32 31 31 31 31 31 30 30 29 29 27 25 23 20 18 16 15 15 16 18 20 21 21 21 21
18 19 20 21 21 22 22 22 22 22 22 23 23 24 25 26 27 28 29 30 31 31 31 31 31 31 31 31 31 32 34 34 34 35 35 35 36 38 38 38 38 38 37 35 32 31 33 40 45 48 46 43 41 39 37 36 36 36 35 35 34 33 33 32 33 33 33 33 32 31 31 29 27 24 21 19 17 17 16 17 18 19 19 20 20 21
19 20 20 21 21 21 21 21 21 21 22 22 22 23 24 25 26 27 28 29 30 30 31 31 31 31 31 31 31 32 32 32 33 34 34 34 35 37 38 38 38 38 38 36 34 32 32 36 42 46 46 43 41 39 37 36 36 36 36 36 35 35 34 34 34 34 34 34 34 33 32 30 28 25 22 20 19 19 18 18 17 17 17 18 19 20
19 19 19 19 19 19 19 19 20 20 21 21 22 22 23 24 25 26 27 28 28 29 29 29 30 30 31 31 32 32 32 31 32 32 33 33 34 36 37 37 38 38 38 38 37 36 36 37 40 42 43 43 41 38 37 36 36 36 36 36 36 35 35 35 35 35 35 35 34 34 33 31 28 26 24 22 21 21 20 19 17 16 15 15 16 18
18 18 17 17 17 17 18 18 19 19 20 21 21 22 23 23 24 25 26 26 27 27 28 28 28 29 29 30 32 32 33 32 31 32 33 32 33 34 36 36 36 37 38 38 38 38 38 39 39 39 40 41 41 38 37 36 36 37 37 36 36 36 35 35 35 35 35 35 34 34 32 31 28 26 25 24 23 22 21 20 18 16 14 13 13 15
17 17 16 16 16 17 17 18 19 19 20 20 21 22 23 23 24 24 25 25 25 26 26 27 27 27 28 29 30 31 32 32 32 31 32 32 32 32 33 35 35 36 36 37 37 38 38 40 39 38 38 39 39 39 38 37 36 37 37 37 36 36 35 35 35 35 35 34 34 33 32 30 28 26 25 25 24 23 22 20 18 16 14 12 11 11
16 16 16 17 17 18 18 19 20 20 21 21 22 23 23 23 24 24 24 24 24 24 25 25 25 26 27 27 28 29 30 31 31 31 31 31 31 31 31 33 34 34 34 35 36 37 38 39 39 38 37 37 37 38 38 38 38 38 38 37 36 36 35 35 35 35 34 33 33 32 31 29 27 26 26 25 25 24 23 21 19 17 15 13 11 10
16 16 17 18 18 19 19 20 21 22 22 23 23 24 24 24 24 24 24 24 24 24 24 24 24 25 26 26 27 28 29 29 30 30 29 29 29 30 30 32 33 33 33 33 34 35 35 36 36 37 37 37 36 36 37 38 38 39 39 37 36 35 35 35 34 34 33 33 32 32 30 28 27 26 26 26 25 25 24 23 21 19 17 15 13 11
16 17 18 19 19 20 21 21 22 23 23 24 24 24 24 24 24 24 24 24 24 24 24 23 24 24 25 26 26 27 27 27 28 28 28 28 28 29 30 31 32 33 33 33 33 33 33 33 33 34 34 35 36 36 36 36 37 38 39 38 37 36 35 34 34 33 33 32 32 32 30 28 28 27 27 26 26 25 25 24 23 21 20 19 17 15
17 18 18 19 20 21 21 22 23 23 24 24 24 24 24 24 24 23 23 23 23 23 23 23 23 23 24 25 25 26 26 26 27 27 27 27 28 28 29 30 31 33 33 33 33 32 32 32 31 31 31 32 34 35 36 35 35 36 37 38 39 38 36 34 33 33 32 32 32 31 30 29 28 28 28 27 26 26 25 24 23 22 21 21 20 19
17 18 19 20 20 21 22 22 23 23 23 24 24 25 25 25 25 25 24 24 23 23 23 24 23 23 23 23 24 25 26 26 26 26 27 27 28 29 30 30 31 32 33 33 33 32 31 30 30 30 29 30 32 34 35 34 34 34 35 36 37 38 37 34 33 32 32 31 31 30 30 30 29 29 29 28 27 25 24 24 23 22 21 20 20 20
18 18 19 20 20 21 21 21 22 22 23 24 24 25 26 26 26 27 26 26 26 26 26 26 26 26 26 25 25 25 26 26 26 27 27 28 29 29 30 31 32 32 33 33 33 32 30 29 29 28 28 29 30 32 34 34 34 33 33 34 36 37 37 35 32 31 32 32 31 30 30 30 31 31 30 29 28 26 25 24 23 22 21 20 19 19
18 18 19 19 20 20 20 21 21 22 23 24 24 25 26 26 27 27 28 28 28 28 28 29 29 29 30 29 29 28 27 27 28 28 29 29 30 31 31 32 32 33 33 33 33 32 31 30 29 28 27 28 29 31 33 34 34 33 33 33 34 36 36 35 34 32 32 31 31 30 30 31 31 31 30 29 28 27 26 25 24 23 21 20 19 18
17 18 19 19 20 20 20 21 21 22 23 24 24 25 26 26 27 27 28 28 28 29 30 30 31 31 32 32 32 31 30 30 29 30 30 31 31 32 33 33 33 33 33 33 32 33 33 32 30 28 28 28 28 30 31 33 34 34 34 33 32 33 33 34 34 33 33 32 31 30 30 31 31 31 30 30 29 28 27 27 26 24 22 20 19 19
17 18 18 19 19 20 20 21 21 22 23 24 25 25 26 26 27 27 28 29 29 29 30 31 33 34 34 34 34 34 33 32 32 32 32 32 32 33 33 34 34 35 34 34 33 33 32 32 32 31 30 30 29 30 30 31 33 34 34 33 33 32 32 32 32 32 32 32 32 31 31 31 31 31 31 30 29 29 28 28 27 25 23 21 20 19
17 17 18 18 19 20 20 21 22 23 23 24 24 25 26 26 26 27 28 29 29 30 31 32 33 35 36 36 36 36 36 35 35 34 34 34 34 34 34 34 35 36 36 35 35 34 33 31 31 32 32 32 32 31 30 31 32 34 35 34 33 33 32 31 30 30 31 31 32 32 31 31 31 31 31 31 30 29 29 28 27 26 24 23 21 20
17 17 18 18 19 20 21 21 22 23 23 24 24 25 26 26 27 27 28 28 30 31 31 32 33 34 35 35 36 36 37 37 37 37 36 36 35 35 35 35 35 36 37 37 37 36 34 32 31 30 30 31 32 32 32 31 32 33 34 34 34 33 33 32 30 30 31 31 32 32 32 31 31 32 32 32 31 30 29 28 27 25 24 23 22 21
17 17 18 19 20 20 21 22 23 23 24 24 24 25 25 26 27 28 28 29 30 31 32 33 34 35 35 35 35 36 36 37 38 38 38 38 37 37 36 36 36 36 37 38 38 38 36 34 31 28 28 28 30 32 33 33 32 32 33 33 33 33 33 32 32 31 31 32 31 31 32 32 32 32 32 32 33 32 31 29 27 25 24 23 22 21
17 18 18 19 20 21 22 23 24 24 25 25 25 25 25 26 27 28 29 29 31 32 33 35 35 35 35 35 35 35 36 36 37 38 38 38 38 38 38 38 38 38 38 39 39 40 39 37 32 28 26 26 27 29 32 33 32 32 31 31 32 32 33 33 33 33 33 33 32 32 31 31 31 30 31 32 33 33 32 30 28 26 25 24 23 21
17 18 19 20 21 22 23 24 24 25 25 26 26 26 26 26 26 27 28 29 31 32 33 34 35 36 36 35 35 36 36 37 37 38 38 38 39 39 40 40 41 41 41 42 42 42 42 41 36 31 27 26 26 27 29 31 31 31 31 31 31 32 33 34 34 34 34 34 34 33 33 32 31 31 30 31 32 33 32 31 29 27 25 24 23 21
17 18 19 20 21 22 23 24 25 25 26 26 26 27 27 27 27 28 29 30 31 32 33 34 34 35 35 35 35 36 36 37 37 38 38 38 39 39 40 41 42 43 44 44 45 45 45 44 41 36 31 26 25 26 27 28 29 30 31 31 31 31 33 34 34 35 35 35 35 34 33 33 32 31 31 32 32 33 33 32 30 28 26 25 23 21
Wind_Direction
337 335 335 336 337 338 339 341 341 340 339 338 337 336 335 334 333 332 331 330 328 327 327 327 327 326 326 326 326 327 327 328 329 331 333 334 336 337 338 338 338 338 339 338 338 338 337 336 335 334 333 333 332 332 333 333 333 332 332 331 332 333 337 338 336 333 332 331 330 330 330 329 327 327 327 328 329 329 329 328 328 328 329 328 327 326
339 338 338 339 340 341 342 342 341 339 338 338 338 338 337 335 333 331 330 328 327 326 326 325 325 325 325 325 326 327 327 329 330 332 334 336 337 338 338 338 339 339 339 339 339 338 337 336 336 335 334 333 332 332 332 332 332 332 332 331 331 333 337 339 337 333 331 330 330 330 330 329 328 328 329 330 330 329 328 328 328 328 328 328 327 326
342 341 341 341 342 342 342 341 340 339 338 339 339 338 337 336 333 331 330 329 328 327 326 325 324 324 325 326 327 327 328 330 332 334 336 337 338 339 339 339 339 339 340 340 339 339 338 337 336 335 334 333 333 332 332 331 332 332 331 330 330 333 338 339 336 333 331 330 330 330 330 329 328 329 330 331 331 329 328 327 327 328 328 327 327 326
345 345 343 343 342 342 341 341 340 340 340 339 338 338 337 335 334 332 331 330 329 328 326 325 325 325 326 327 328 329 330 331 334 335 337 338 339 340 340 339 339 339 340 340 340 339 338 337 336 336 335 334 333 332 331 331 331 331 331 329 330 333 338 338 335 332 330 330 330 330 329 329 328 329 331 332 331 329 327 327 327 328 328 327 327 326
346 346 345 344 342 341 341 342 342 342 341 340 338 338 337 336 335 334 332 331 330 329 329 328 327 327 328 329 330 331 332 333 335 337 338 340 340 340 340 339 339 340 340 341 341 340 339 338 337 336 335 334 333 332 331 331 331 331 330 329 330 333 337 336 333 331 330 330 330 330 328 328 329 330 331 332 331 328 326 326 327 328 328 328 327 328
347 346 346 345 344 343 342 342 343 342 342 341 340 340 339 338 337 336 334 333 332 332 332 331 331 330 330 331 332 333 334 335 337 338 339 340 340 340 340 340 340 341 341 341 341 341 340 339 338 337 336 334 333 332 331 331 330 330 329 328 330 335 337 334 332 330 329 330 330 329 328 327 328 329 331 331 330 327 326 326 327 328 328 328 328 329
348 347 347 347 346 345 344 342 342 342 341 342 342 342 342 341 340 339 337 336 336 336 336 336 335 334 334 334 335 336 337 338 339 340 340 340 340 340 340 341 341 342 342 342 341 341 341 340 339 337 336 335 333 332 331 331 330 328 327 328 332 336 335 333 330 330 330 330 329 328 327 327 328 329 330 330 329 327 326 326 327 328 329 329 329 329
349 349 348 348 347 346 345 343 343 342 342 342 342 343 343 343 343 343 342 340 339 340 340 341 341 341 340 339 339 339 340 340 341 342 342 341 340 340 340 341 342 343 343 343 342 342 341 340 339 338 336 335 333 332 331 331 329 327 326 329 334 337 334 331 330 329 330 329 329 328 327 327 328 329 330 330 328 327 326 327 327 328 329 329 330 330
350 349 349 349 348 346 345 345 344 344 344 343 342 342 342 343 344 346 347 346 346 346 346 346 346 346 347 346 344 343 343 344 345 346 345 343 341 340 340 342 343 344 345 345 344 343 342 341 339 338 336 335 333 332 331 330 328 327 327 332 337 337 333 330 329 329 329 329 329 328 328 328 329 330 330 330 328 327 327 327 328 328 329 330 330 330
351 350 349 349 349 348 347 346 345 346 345 344 343 342 342 343 345 347 349 352 354 354 353 351 349 349 349 351 350 348 347 347 348 349 347 344 342 340 341 342 343 345 346 346 345 344 342 341 340 338 336 335 333 332 331 329 327 327 330 336 338 335 331 329 328 329 329 329 328 328 328 328 329 330 331 330 328 327 327 327 328 329 329 330 330 331
351 350 349 349 349 349 348 346 346 346 345 344 344 344 345 346 348 349 350 352 354 356 358 357 354 351 350 351 352 352 351 350 350 350 349 346 342 341 341 342 343 345 346 346 345 345 343 342 341 339 337 335 334 332 331 329 328 329 334 338 337 333 330 328 328 328 329 328 328 328 328 328 329 330 330 329 328 327 327 327 328 329 329 329 330 332
351 350 349 350 349 349 348 347 346 346 345 346 347 349 351 351 351 352 352 352 353 354 356 358 358 356 353 351 351 352 352 352 352 352 351 347 343 342 342 343 344 345 345 346 346 346 345 344 343 341 339 337 335 333 331 329 330 333 337 338 335 331 328 328 328 328 328 328 327 327 328 328 329 330 330 329 328 327 327 327 328 329 329 329 330 333
351 350 349 349 348 348 348 348 348 349 350 351 352 354 355 354 353 353 353 353 353 353 354 355 357 357 356 354 353 352 352 352 352 353 353 350 346 343 343 345 346 347 347 347 348 348 348 346 345 343 342 339 337 334 332 332 334 337 339 338 333 329 327 328 328 328 328 327 327 327 328 329 330 330 330 329 327 327 327 327 328 329 329 330 332 336
351 350 349 348 348 349 350 351 352 353 355 356 356 356 356 355 354 354 353 353 353 353 352 353 354 356 357 355 353 352 352 351 351 352 354 354 350 346 345 346 348 349 349 349 350 351 351 349 348 346 344 342 339 337 335 335 337 340 339 336 332 328 327 327 328 328 327 327 327 328 328 329 330 330 330 329 328 327 327 328 329 330 330 330 333 338
351 350 350 350 350 351 353 354 355 356 357 358 358 357 357 357 356 355 354 353 352 352 352 351 352 355 358 358 354 351 350 349 349 350 353 355 354 350 348 347 349 351 351 351 352 353 353 352 350 348 346 344 342 340 338 339 340 340 339 335 332 329 328 328 328 328 327 327 327 328 329 330 330 330 329 329 328 328 328 329 330 330 330 331 336 340
352 352 352 352 352 353 354 355 356 357 357 358 359 359 359 359 358 356 355 354 352 352 352 351 351 352 355 357 355 352 349 348 347 348 349 354 356 354 351 349 350 351 353 353 354 354 354 354 352 350 349 347 344 342 342 342 342 341 339 336 333 331 330 329 329 328 327 327 327 328 329 330 330 330 330 329 328 328 329 330 330 330 331 333 338 341
353 353 353 353 354 355 355 355 356 357 357 358 360 0 1 360 359 357 356 354 353 352 353 352 352 350 351 353 353 351 348 346 345 346 347 352 355 356 353 351 350 351 353 354 355 355 355 355 354 352 351 349 347 345 344 344 344 342 339 337 335 334 332 331 329 328 328 327 327 328 329 330 330 330 330 329 328 329 329 330 330 330 331 334 339 340
354 354 354 355 355 356 355 356 356 357 358 359 359 0 1 0 359 358 356 355 354 353 352 352 352 350 348 351 350 348 347 345 344 344 346 350 354 356 355 352 351 351 353 354 355 355 356 356 356 354 353 351 349 348 347 347 345 343 341 338 337 336 335 333 330 329 328 328 328 329 330 330 330 330 330 329 329 329 329 330 330 331 331 335 339 339
354 355 356 356 356 356 356 356 356 357 357 358 358 359 359 359 359 358 356 355 354 353 352 351 351 350 348 349 348 346 346 345 344 344 345 348 353 356 354 352 351 351 353 354 355 355 356 357 357 356 355 353 352 351 350 348 346 343 342 340 339 338 337 334 332 330 329 328 328 329 330 330 330 330 329 329 329 329 330 330 330 331 332 336 339 337
353 355 357 357 357 357 357 357 357 357 358 358 358 359 359 358 358 357 356 355 354 354 353 351 350 349 348 348 348 346 345 345 344 344 344 347 352 355 354 351 350 350 352 354 355 355 356 357 357 357 357 356 355 354 352 349 346 344 343 343 342 341 339 337 334 332 331 330 329 330 330 330 330 330 329 330 330 330 330 330 330 330 332 336 337 334
354 355 356 357 357 358 358 357 357 358 358 358 359 358 357 357 356 356 355 354 354 354 353 352 350 349 348 348 349 348 346 346 345 344 343 345 350 353 353 350 349 350 351 353 354 354 356 357 358 358 358 358 357 356 353 350 347 345 344 345 344 344 342 340 337 335 333 333 332 331 330 330 330 329 329 330 330 330 330 330 330 330 332 335 334 330
355 356 356 357 358 358 358 358 358 357 358 358 358 357 356 355 354 354 353 353 353 353 353 351 350 349 348 350 350 350 347 347 346 344 343 344 347 351 351 350 349 349 350 351 352 353 355 357 359 359 359 359 359 357 354 351 349 347 347 347 347 347 345 343 341 339 337 336 335 332 331 330 330 330 330 330 329 329 329 329 329 330 333 334 332 326
355 356 357 358 358 358 358 358 358 358 358 357 357 357 356 355 354 352 352 352 351 351 350 350 349 350 350 352 353 352 349 347 346 345 344 342 345 349 350 349 348 348 349 351 351 352 354 357 359 359 359 359 359 357 355 352 350 349 349 350 350 350 349 347 345 344 343 341 339 335 333 331 330 330 330 330 329 329 329 328 328 330 332 332 328 323
357 357 358 358 358 358 359 359 358 357 356 355 355 355 356 355 353 352 352 351 350 349 349 349 349 351 352 354 355 354 351 348 346 345 344 342 343 347 349 349 347 346 347 349 350 351 353 356 358 359 359 359 358 357 355 353 352 351 352 352 353 353 352 351 350 349 348 346 343 339 337 334 332 331 330 329 328 328 327 327 328 330 331 330 325 320
358 359 359 359 359 359 360 359 358 356 355 353 353 354 354 354 354 353 352 351 350 349 349 349 350 352 354 354 356 356 353 350 348 347 344 341 342 345 349 348 346 344 346 348 349 350 352 355 357 358 358 357 357 356 355 354 353 353 354 355 356 355 355 354 353 352 352 350 347 345 343 341 338 334 331 329 327 326 326 325 327 330 330 327 322 317
358 359 359 359 359 360 359 358 357 356 355 353 353 353 353 353 353 353 352 351 351 350 350 350 351 352 353 354 356 356 355 352 350 348 345 341 340 343 347 348 346 344 344 347 348 349 350 353 355 356 356 355 355 355 355 354 354 355 356 357 357 357 356 355 355 355 355 354 353 351 349 346 343 338 334 330 328 326 325 326 329 331 330 325 319 316
357 358 359 359 359 359 359 358 358 357 356 355 354 353 352 353 353 354 354 353 353 352 352 351 350 350 351 353 354 355 356 354 351 348 345 342 340 342 345 347 347 345 344 345 346 347 349 351 352 353 352 353 353 355 355 355 355 356 357 357 358 358 357 356 356 356 356 356 355 355 353 350 347 342 337 333 329 327 326 328 331 333 330 324 318 317
356 357 357 358 359 359 360 360 359 358 357 356 355 354 353 353 354 354 355 354 354 353 353 352 350 349 349 349 351 354 357 356 352 346 344 342 340 341 344 347 348 346 344 344 345 347 348 349 349 349 349 350 352 354 355 356 356 356 357 358 358 357 357 356 356 356 356 356 357 356 355 353 350 346 341 336 332 330 331 334 336 335 330 324 319 318
355 356 357 358 360 1 1 1 360 359 358 357 356 355 355 355 355 355 354 354 354 353 352 351 350 348 347 346 349 353 357 357 351 345 344 342 341 341 344 346 348 347 345 343 344 345 346 347 347 346 346 348 350 353 355 356 356 356 357 357 357 357 356 356 355 355 356 356 357 356 355 353 351 348 345 341 337 335 337 340 340 336 330 323 320 319
355 356 358 360 1 2 2 2 0 359 358 357 357 356 356 356 356 355 355 355 354 352 351 350 349 348 346 346 347 350 354 355 351 346 344 342 341 342 344 345 347 347 346 344 342 342 342 345 345 345 345 347 349 352 354 355 356 356 356 356 356 356 356 355 354 354 355 355 355 355 354 353 351 349 348 345 343 343 345 346 343 337 330 324 321 321
357 359 0 2 3 3 3 2 1 360 359 359 358 358 357 357 357 356 355 354 353 351 349 348 347 347 347 346 345 345 348 352 349 346 345 343 342 342 344 344 345 347 347 344 340 336 336 339 343 345 346 347 349 351 353 354 354 354 354 354 354 355 355 354 353 353 354 354 354 354 352 351 350 350 349 349 349 350 352 350 345 338 330 326 324 324
360 1 3 3 3 3 2 2 1 1 0 360 359 358 358 357 356 356 355 353 351 349 348 347 346 346 347 347 345 344 347 350 349 346 345 343 342 342 344 344 344 345 346 344 339 333 329 331 337 343 346 347 348 350 352 352 352 352 352 351 352 353 354 353 352 352 353 353 353 352 351 350 350 350 351 352 353 355 355 352 345 338 332 328 327 327
3 4 4 4 3 2 2 2 2 1 1 0 360 359 358 357 356 355 354 352 350 348 346 345 345 345 345 346 346 346 349 350 349 346 344 343 342 342 343 344 344 344 344 343 340 334 329 328 333 339 343 345 347 349 350 350 350 350 350 349 350 351 352 352 352 351 351 352 352 351 351 350 350 351 353 355 357 357 355 351 346 340 334 330 329 328
5 6 5 3 2 2 2 2 2 2 1 1 360 359 358 357 356 355 353 351 348 347 345 345 344 344 344 344 345 346 349 350 349 346 345 343 342 342 343 344 344 344 343 341 339 337 334 333 333 335 338 343 347 349 349 348 348 348 348 348 348 348 350 351 350 350 350 350 350 350 349 349 350 352 355 357 358 357 355 351 348 344 339 334 331 327
5 4 3 2 1 2 2 3 3 3 2 1 360 359 358 358 356 354 352 350 347 346 345 344 344 344 344 344 344 345 348 349 348 347 345 344 343 342 343 344 344 344 342 340 339 337 335 335 335 334 335 339 343 348 350 348 347 347 347 347 347 347 348 349 349 348 348 348 348 347 348 348 350 353 356 358 358 356 354 353 351 349 346 341 334 328
3 1 0 360 0 1 2 3 3 3 2 2 1 360 358 357 355 353 351 349 347 345 344 344 345 345 345 345 344 344 346 347 347 347 346 344 343 343 343 343 344 344 342 340 338 336 334 335 336 336 335 335 338 344 349 350 349 347 346 346 346 347 348 348 348 347 346 345 345 345 346 347 349 352 355 357 357 356 356 356 356 354 351 347 340 332
0 359 359 359 360 1 2 3 3 2 2 2 1 0 359 357 355 352 350 348 346 345 345 345 345 345 345 345 345 345 345 346 347 347 346 345 344 343 342 343 345 345 342 340 338 337 335 334 335 336 336 334 334 337 343 347 349 348 347 346 345 345 346 347 346 346 344 342 341 342 343 345 348 351 355 357 358 357 358 359 360 358 355 350 346 341
358 358 358 359 360 1 2 2 2 2 2 1 0 359 358 356 354 352 350 348 346 345 345 345 346 347 346 346 345 345 346 346 347 347 346 345 344 343 343 344 346 346 345 342 340 338 336 333 332 332 333 335 336 337 340 343 345 346 346 345 344 344 344 345 345 344 343 341 340 340 342 344 347 350 353 356 357 357 357 359 0 0 357 353 350 348
358 358 359 360 1 1 2 2 2 1 1 0 359 358 357 355 353 352 350 348 346 345 346 347 347 348 347 346 346 346 347 347 348 347 347 346 345 345 345 345 346 347 347 345 343 341 338 334 330 328 328 330 334 337 340 342 343 343 343 344 344 344 344 344 344 343 341 339 339 340 342 344 346 348 349 352 354 355 355 357 358 358 356 353 350 349
360 360 0 1 2 2 2 2 1 0 359 358 357 356 355 354 353 352 350 349 347 346 347 347 349 349 349 348 348 348 349 349 350 349 349 348 348 347 347 347 347 348 348 347 346 344 341 337 334 332 330 329 330 333 337 340 342 342 342 340 340 342 344 344 343 341 339 338 339 340 342 343 344 344 345 348 351 353 354 355 356 356 355 352 349 348
1 1 1 2 2 3 2 1 360 359 358 357 355 354 353 353 352 352 351 350 349 349 349 349 349 350 351 351 351 351 352 352 352 352 352 351 351 351 350 349 349 349 349 349 349 348 345 341 339 337 336 334 332 333 335 339 341 342 341 338 337 338 340 342 341 339 338 338 340 341 342 342 342 342 343 345 348 351 353 353 353 353 353 351 350 348
1 1 2 3 3 3 2 360 358 357 357 356 355 354 353 352 352 351 351 351 351 351 351 351 351 351 351 353 354 355 356 356 356 356 356 355 354 353 353 351 351 350 350 350 351 351 350 347 344 342 340 337 334 333 335 339 341 342 340 338 336 336 338 340 340 339 338 339 341 342 342 342 342 342 342 343 345 348 351 352 352 351 350 349 348 349
0 1 2 3 3 3 1 359 357 357 357 357 356 355 354 353 352 351 351 351 352 352 353 352 351 351 351 352 354 357 359 360 360 359 359 358 357 355 354 353 352 351 351 351 352 353 353 352 349 346 344 341 337 335 334 338 341 341 340 338 336 333 331 335 338 340 340 340 341 342 343 342 341 341 341 341 343 345 347 349 350 350 349 348 347 347
360 1 2 3 3 2 360 358 358 358 358 358 357 356 355 354 353 352 351 352 353 353 353 352 352 351 352 352 354 356 359 1 2 2 1 360 358 357 355 354 353 353 353 353 353 353 354 355 353 351 347 344 340 338 338 339 339 340 339 337 335 331 328 330 335 339 341 342 342 343 343 342 341 340 340 340 341 342 344 345 347 349 350 349 348 347
360 1 2 2 1 0 359 359 359 360 359 358 357 356 355 354 353 353 352 352 353 354 354 353 352 352 353 353 354 356 358 0 2 3 2 1 360 358 356 355 354 354 354 354 354 354 355 355 354 353 351 347 344 341 340 339 338 337 336 336 334 332 331 334 337 339 339 341 343 344 344 342 341 340 339 339 340 341 342 343 345 347 348 349 348 347
359 0 1 1 1 0 360 0 1 1 0 359 358 356 355 355 354 354 354 354 354 354 355 354 354 354 354 354 355 356 358 359 1 2 1 1 360 358 357 356 355 355 355 355 355 355 356 356 355 354 352 349 346 344 343 341 338 336 335 334 333 333 334 337 340 342 342 341 342 344 344 343 342 340 338 338 338 339 340 342 344 345 347 348 348 347
358 359 0 1 1 1 1 1 2 2 1 0 359 357 356 355 355 355 355 355 355 355 355 355 355 355 356 356 357 358 358 359 360 360 360 359 359 358 357 357 357 356 356 355 355 355 356 357 357 356 353 349 345 344 343 342 338 335 333 333 334 334 336 338 341 344 345 344 344 345 346 345 343 340 339 338 337 337 338 340 343 345 347 347 347 346
358 359 360 0 1 1 2 2 2 2 1 0 359 359 357 356 356 356 356 357 356 356 355 355 355 356 357 358 359 360 360 360 359 359 358 357 357 357 357 357 357 356 356 355 355 355 355 357 358 357 354 350 346 343 342 341 339 335 334 334 335 336 336 338 342 345 346 346 346 347 348 346 343 340 339 337 336 336 338 340 342 345 347 348 346 345
358 359 360 1 1 2 2 2 2 1 0 360 359 359 359 358 357 357 357 357 357 357 356 356 356 357 358 359 1 1 1 1 360 359 358 357 356 356 356 356 356 356 355 356 356 355 356 357 358 358 356 353 348 343 340 339 338 336 336 337 337 337 337 338 341 344 345 345 346 347 348 347 345 342 338 336 334 335 338 340 343 346 348 348 347 346
358 359 0 1 2 3 3 2 1 0 359 359 358 358 359 359 359 359 358 358 358 358 358 357 357 357 359 0 1 2 2 1 360 359 358 356 356 355 356 355 355 355 355 355 355 356 356 357 358 359 358 356 350 344 339 338 338 339 339 340 341 340 340 340 342 343 344 343 344 345 346 346 345 344 340 335 334 335 338 341 343 346 349 349 348 347
358 360 1 3 3 4 3 2 1 360 358 358 357 358 358 359 359 360 359 359 359 358 359 359 359 359 360 1 2 3 3 2 0 359 358 357 356 356 356 356 355 355 354 355 355 355 355 355 355 357 359 358 353 347 342 341 341 342 342 343 344 345 344 344 344 345 344 343 342 343 343 343 342 341 339 336 334 334 336 339 342 347 350 351 349 348
Height
1514 1513 1512 1511 1510 1509 1508 1507 1505 1504 1503 1502 1501 1499 1498 1496 1494 1493 1491 1489 1488 1486 1485 1483 1482 1481 1479 1478 1477 1475 1473 1471 1470 1468 1466 1464 1463 1461 1459 1458 1456 1455 1453 1451 1450 1448 1446 1445 1443 1441 1439 1438 1436 1434 1432 1431 1429 1427 1426 1424 1422 1421 1420 1419 1418 1417 1416 1415 1414 1413 1411 1410 1409 1407 1405 1404 1403 1402 1400 1399 1397 1396 1395 1394 1392 1391
1513 1512 1512 1511 1510 1509 1507 1506 1505 1504 1503 1501 1500 1499 1497 1496 1494 1493 1491 1490 1488 1486 1484 1483 1481 1480 1479 1477 1476 1474 1473 1471 1469 1467 1465 1464 1462 1460 1458 1457 1455 1454 1452 1450 1449 1447 1445 1444 1442 1440 1439 1437 1435 1433 1431 1430 1428 1426 1425 1423 1422 1420 1419 1418 1417 1416 1415 1414 1413 1411 1410 1409 1407 1406 1404 1403 1402 1400 1399 1397 1396 1394 1394 1392 1391 1390
1513 1512 1511 1510 1509 1508 1507 1506 1505 1504 1502 1500 1499 1498 1497 1495 1494 1492 1491 1489 1488 1486 1484 1482 1481 1479 1478 1477 1475 1474 1472 1470 1468 1467 1465 1463 1461 1459 1457 1456 1454 1453 1451 1449 1448 1446 1444 1443 1441 1439 1438 1436 1434 1432 1430 1429 1427 1425 1424 1422 1420 1419 1418 1417 1416 1415 1414 1412 1411 1410 1409 1407 1406 1404 1403 1402 1400 1399 1398 1396 1394 1394 1392 1391 1390 1389
1513 1512 1511 1510 1509 1508 1507 1506 1504 1503 1502 1500 1499 1497 1496 1495 1493 1492 1490 1489 1487 1485 1484 1482 1480 1479 1478 1476 1475 1474 1472 1470 1468 1466 1464 1462 1460 1459 1457 1455 1453 1452 1450 1449 1447 1445 1444 1442 1440 1439 1437 1435 1433 1431 1429 1428 1426 1424 1423 1421 1419 1418 1417 1416 1415 1414 1413 1411 1410 1409 1408 1406 1404 1403 1402 1400 1399 1398 1397 1395 1394 1392 1391 1390 1389 1388
1512 1511 1511 1509 1509 1507 1506 1505 1504 1503 1501 1500 1499 1497 1495 1494 1493 1491 1489 1488 1486 1485 1483 1482 1480 1478 1477 1475 1474 1473 1471 1469 1468 1466 1464 1462 1460 1458 1456 1454 1453 1451 1449 1448 1446 1444 1443 1441 1439 1438 1436 1434 1432 1430 1428 1426 1424 1423 1421 1420 1419 1417 1416 1415 1414 1413 1411 1410 1409 1408 1406 1405 1403 1402 1400 1399 1398 1397 1395 1394 1392 1391 1390 1389 1387 1386
1512 1511 1510 1509 1508 1507 1505 1504 1503 1502 1501 1500 1499 1497 1495 1494 1492 1490 1489 1487 1486 1484 1483 1481 1479 1478 1476 1474 1473 1472 1471 1469 1467 1465 1464 1462 1460 1458 1456 1454 1452 1450 1449 1447 1445 1444 1442 1440 1438 1437 1435 1433 1431 1429 1427 1425 1424 1422 1420 1419 1417 1416 1415 1414 1413 1412 1410 1409 1408 1406 1405 1404 1402 1401 1399 1398 1397 1396 1394 1393 1391 1390 1389 1387 1386 1385
1511 1511 1509 1509 1507 1506 1505 1504 1502 1501 1500 1499 1498 1496 1495 1494 1492 1490 1488 1486 1485 1484 1483 1481 1480 1478 1476 1474 1473 1471 1470 1469 1467 1465 1463 1461 1460 1458 1456 1454 1452 1450 1448 1446 1444 1443 1441 1439 1437 1435 1434 1432 1430 1428 1426 1424 1423 1421 1419 1418 1416 1415 1414 1413 1412 1411 1409 1408 1407 1405 1404 1402 1401 1399 1399 1397 1396 1394 1393 1391 1390 1389 1387 1386 1385 1384
1511 1510 1509 1508 1507 1506 1504 1503 1502 1500 1499 1497 1496 1495 1494 1493 1492 1490 1489 1487 1485 1483 1482 1481 1479 1478 1476 1474 1472 1470 1469 1467 1465 1464 1462 1460 1459 1457 1456 1454 1452 1450 1448 1446 1444 1442 1440 1438 1436 1434 1433 1431 1429 1427 1425 1423 1422 1420 1418 1417 1415 1414 1413 1412 1411 1409 1408 1407 1405 1404 1403 1401 1400 1399 1397 1396 1395 1393 1392 1390 1389 1388 1386 1385 1384 1383
1511 1510 1509 1508 1506 1505 1504 1503 1501 1499 1498 1496 1494 1493 1492 1491 1491 1490 1489 1487 1485 1483 1481 1479 1478 1477 1476 1474 1472 1470 1468 1466 1465 1463 1461 1459 1457 1456 1454 1453 1451 1449 1447 1445 1443 1441 1439 1437 1435 1433 1431 1429 1428 1426 1424 1422 1420 1419 1417 1416 1414 1414 1412 1411 1410 1408 1407 1406 1404 1403 1401 1400 1399 1397 1396 1395 1394 1392 1390 1389 1388 1386 1385 1384 1383 1381
1510 1509 1508 1507 1506 1505 1503 1502 1501 1499 1498 1496 1494 1493 1491 1489 1488 1487 1487 1486 1484 1483 1481 1479 1477 1475 1474 1473 1472 1470 1468 1466 1465 1463 1461 1459 1457 1455 1454 1452 1450 1448 1447 1444 1443 1440 1439 1436 1434 1432 1430 1428 1426 1425 1423 1421 1419 1418 1416 1415 1414 1413 1411 1410 1409 1407 1406 1404 1403 1402 1400 1399 1398 1396 1395 1394 1393 1391 1389 1388 1387 1385 1384 1383 1381 1380
1510 1509 1508 1507 1506 1504 1503 1502 1500 1499 1498 1496 1495 1493 1491 1489 1487 1485 1483 1482 1482 1481 1480 1479 1476 1474 1472 1471 1470 1469 1468 1466 1464 1463 1461 1459 1457 1455 1454 1452 1450 1448 1446 1444 1442 1440 1438 1435 1433 1431 1429 1427 1425 1424 1422 1420 1418 1417 1415 1414 1413 1412 1410 1409 1407 1406 1404 1403 1402 1400 1399 1398 1396 1395 1394 1393 1391 1390 1388 1387 1385 1384 1383 1382 1380 1379
1510 1509 1508 1506 1505 1504 1503 1502 1500 1499 1497 1496 1494 1492 1490 1488 1486 1484 1483 1481 1479 1479 1478 1477 1476 1474 1472 1470 1469 1467 1466 1465 1463 1461 1460 1458 1456 1454 1453 1451 1449 1447 1445 1444 1442 1439 1437 1434 1432 1430 1428 1426 1424 1422 1420 1419 1417 1415 1414 1413 1412 1410 1409 1408 1406 1405 1404 1402 1400 1399 1398 1396 1395 1394 1393 1391 1390 1389 1387 1386 1384 1383 1382 1380 1379 1378
1509 1508 1507 1506 1505 1504 1503 1501 1500 1498 1496 1494 1492 1490 1489 1487 1485 1484 1483 1481 1479 1478 1477 1476 1475 1474 1472 1470 1468 1467 1465 1464 1462 1461 1459 1457 1455 1453 1451 1450 1448 1446 1444 1442 1440 1438 1435 1433 1431 1429 1427 1424 1423 1421 1419 1417 1416 1414 1413 1412 1411 1409 1408 1406 1405 1404 1402 1401 1399 1398 1396 1395 1394 1393 1391 1390 1389 1388 1386 1384 1383 1382 1381 1379 1378 1377
1509 1508 1507 1506 1504 1503 1502 1500 1499 1497 1495 1493 1491 1490 1489 1487 1485 1483 1481 1480 1479 1477 1476 1475 1474 1473 1471 1469 1467 1465 1464 1463 1461 1460 1459 1457 1454 1452 1450 1448 1447 1445 1443 1440 1438 1436 1434 1432 1429 1427 1425 1423 1421 1419 1418 1416 1414 1413 1412 1411 1410 1408 1407 1405 1404 1402 1401 1399 1398 1396 1395 1394 1393 1392 1390 1389 1388 1386 1385 1384 1382 1381 1379 1378 1377 1376
1509 1508 1506 1505 1504 1502 1501 1499 1498 1496 1495 1493 1491 1490 1488 1486 1484 1483 1480 1479 1477 1475 1474 1473 1472 1471 1470 1469 1466 1464 1463 1461 1460 1458 1457 1456 1454 1452 1449 1447 1445 1444 1442 1439 1437 1435 1433 1431 1428 1426 1424 1422 1420 1418 1416 1415 1414 1412 1411 1410 1409 1407 1406 1404 1403 1401 1399 1398 1397 1395 1394 1393 1392 1390 1389 1388 1387 1385 1384 1382 1381 1380 1379 1377 1376 1375
1508 1507 1506 1504 1503 1502 1500 1499 1497 1496 1494 1493 1491 1489 1487 1485 1484 1482 1480 1478 1476 1474 1472 1470 1468 1467 1467 1467 1466 1464 1462 1460 1459 1457 1456 1454 1453 1451 1449 1446 1444 1442 1440 1439 1436 1434 1432 1429 1427 1425 1423 1421 1419 1417 1416 1414 1413 1412 1410 1409 1407 1406 1404 1403 1401 1400 1398 1397 1395 1394 1393 1391 1390 1389 1388 1387 1385 1384 1383 1381 1380 1379 1378 1376 1375 1375
1508 1506 1505 1504 1502 1501 1499 1498 1497 1495 1494 1493 1491 1489 1488 1486 1484 1482 1481 1479 1476 1474 1472 1470 1468 1465 1464 1463 1464 1463 1461 1459 1457 1456 1454 1453 1452 1450 1448 1445 1443 1440 1439 1437 1435 1433 1431 1429 1426 1424 1422 1420 1419 1417 1415 1413 1412 1411 1409 1408 1406 1405 1403 1402 1400 1399 1397 1396 1394 1393 1391 1390 1389 1388 1387 1385 1384 1383 1381 1380 1379 1378 1377 1375 1374 1374
1507 1506 1505 1503 1502 1500 1499 1498 1496 1495 1494 1492 1490 1489 1488 1487 1485 1483 1481 1479 1477 1475 1473 1471 1470 1468 1465 1463 1462 1462 1460 1459 1456 1454 1452 1451 1450 1448 1446 1444 1442 1440 1438 1436 1434 1432 1430 1428 1426 1424 1422 1420 1418 1416 1414 1413 1411 1410 1409 1407 1405 1404 1402 1400 1399 1398 1396 1394 1393 1392 1390 1389 1388 1387 1386 1384 1383 1382 1380 1379 1378 1377 1376 1374 1374 1373
1506 1505 1504 1503 1502 1500 1499 1497 1496 1494 1493 1491 1490 1489 1487 1486 1485 1483 1482 1480 1479 1477 1474 1472 1470 1469 1467 1465 1463 1462 1460 1458 1456 1453 1451 1449 1447 1446 1444 1443 1441 1439 1437 1435 1433 1431 1429 1427 1426 1424 1422 1419 1417 1415 1414 1412 1410 1409 1408 1406 1404 1403 1401 1399 1398 1396 1395 1394 1392 1391 1389 1388 1387 1386 1384 1383 1382 1380 1379 1378 1377 1376 1374 1374 1373 1372
1506 1505 1504 1503 1501 1500 1498 1497 1495 1494 1493 1491 1490 1488 1487 1485 1484 1483 1482 1480 1479 1477 1476 1474 1472 1469 1468 1466 1464 1462 1460 1457 1455 1452 1449 1448 1446 1444 1443 1441 1439 1437 1435 1434 1432 1430 1428 1426 1424 1423 1421 1419 1416 1414 1413 1411 1410 1408 1406 1405 1403 1401 1400 1398 1397 1395 1394 1392 1391 1389 1388 1387 1386 1384 1383 1382 1381 1379 1378 1377 1376 1374 1374 1373 1372 1372
1506 1504 1504 1502 1501 1499 1498 1497 1495 1494 1493 1491 1489 1488 1486 1485 1484 1483 1482 1480 1479 1477 1476 1474 1472 1470 1469 1466 1464 1462 1459 1457 1454 1451 1448 1446 1444 1443 1442 1440 1438 1435 1433 1432 1431 1429 1428 1425 1424 1422 1419 1418 1416 1414 1412 1410 1409 1407 1405 1404 1402 1400 1399 1397 1395 1394 1393 1391 1389 1388 1387 1386 1384 1383 1382 1380 1379 1378 1377 1376 1374 1373 1372 1372 1371 1370
1505 1504 1503 1502 1501 1499 1498 1497 1495 1494 1492 1490 1489 1488 1486 1485 1483 1482 1481 1479 1478 1477 1475 1474 1473 1471 1469 1467 1464 1462 1459 1457 1454 1451 1448 1444 1442 1441 1441 1439 1436 1434 1432 1430 1429 1427 1426 1424 1422 1420 1419 1417 1415 1413 1411 1410 1408 1406 1404 1403 1401 1399 1398 1396 1394 1393 1391 1390 1389 1387 1386 1384 1383 1382 1381 1379 1378 1377 1375 1374 1373 1372 1371 1371 1370 1369
1505 1504 1503 1501 1500 1499 1497 1496 1494 1493 1491 1490 1489 1488 1487 1485 1484 1482 1480 1479 1478 1477 1475 1474 1473 1472 1470 1468 1465 1463 1460 1457 1454 1452 1448 1444 1441 1440 1439 1436 1434 1432 1430 1429 1427 1425 1424 1423 1421 1419 1417 1416 1414 1412 1411 1409 1407 1405 1404 1402 1400 1398 1396 1395 1393 1392 1390 1389 1387 1386 1384 1383 1382 1381 1379 1378 1377 1375 1374 1373 1372 1371 1370 1369 1369 1367
1505 1503 1502 1501 1499 1498 1496 1495 1494 1492 1491 1490 1489 1488 1487 1485 1484 1482 1481 1479 1478 1476 1475 1474 1472 1471 1469 1467 1465 1463 1460 1457 1454 1451 1448 1445 1442 1439 1438 1435 1432 1429 1428 1427 1425 1424 1422 1421 1419 1418 1416 1414 1413 1411 1410 1408 1406 1404 1402 1400 1399 1397 1395 1394 1392 1390 1389 1388 1386 1385 1383 1382 1381 1379 1378 1377 1375 1374 1373 1372 1371 1370 1369 1368 1367 1365
1504 1503 1502 1500 1499 1498 1496 1495 1494 1493 1491 1490 1489 1487 1486 1485 1484 1482 1481 1479 1478 1476 1474 1473 1471 1469 1468 1466 1464 1462 1459 1457 1454 1451 1448 1444 1441 1438 1437 1435 1432 1429 1426 1424 1423 1422 1420 1419 1417 1416 1414 1413 1412 1410 1409 1407 1405 1403 1401 1399 1398 1396 1394 1393 1391 1389 1388 1386 1385 1384 1382 1381 1379 1378 1377 1375 1374 1373 1371 1370 1369 1369 1368 1367 1365 1364
1504 1503 1501 1500 1499 1498 1497 1496 1494 1493 1492 1490 1489 1487 1486 1485 1484 1483 1481 1479 1477 1475 1473 1471 1469 1468 1466 1465 1463 1461 1459 1456 1453 1450 1448 1444 1440 1437 1436 1434 1431 1428 1424 1423 1421 1420 1418 1416 1415 1414 1413 1412 1410 1409 1408 1406 1404 1402 1400 1398 1396 1395 1393 1391 1390 1388 1387 1385 1384 1383 1381 1380 1378 1377 1375 1374 1373 1371 1370 1369 1368 1367 1366 1365 1364 1362
1504 1503 1502 1501 1500 1499 1498 1496 1495 1494 1492 1491 1489 1488 1486 1485 1484 1482 1480 1479 1477 1475 1472 1470 1467 1465 1464 1462 1461 1459 1457 1454 1452 1449 1447 1444 1440 1437 1434 1433 1430 1427 1423 1421 1419 1418 1417 1415 1414 1412 1411 1410 1409 1408 1406 1404 1403 1401 1399 1397 1395 1394 1392 1390 1389 1387 1386 1384 1383 1381 1380 1379 1377 1376 1374 1373 1371 1370 1369 1368 1367 1366 1365 1363 1362 1360
1504 1503 1502 1501 1500 1499 1497 1496 1495 1493 1492 1491 1489 1488 1486 1484 1483 1481 1479 1478 1476 1474 1472 1470 1467 1465 1463 1461 1460 1458 1456 1454 1451 1449 1447 1444 1441 1437 1435 1433 1430 1426 1423 1419 1417 1416 1416 1414 1413 1411 1410 1409 1408 1406 1405 1403 1401 1399 1398 1396 1394 1393 1391 1389 1388 1386 1385 1383 1382 1380 1379 1378 1376 1375 1373 1372 1370 1369 1368 1367 1366 1364 1363 1362 1360 1359
1504 1503 1502 1501 1499 1498 1497 1495 1494 1493 1492 1490 1489 1487 1486 1484 1482 1480 1479 1477 1475 1473 1471 1470 1468 1465 1463 1461 1459 1457 1455 1454 1451 1449 1446 1443 1440 1437 1435 1432 1430 1427 1423 1418 1415 1413 1414 1414 1412 1411 1409 1408 1406 1404 1403 1401 1399 1398 1396 1394 1393 1391 1390 1388 1387 1385 1384 1382 1381 1379 1378 1376 1375 1374 1372 1371 1369 1368 1367 1366 1365 1364 1362 1360 1359 1357
1504 1503 1502 1500 1499 1498 1496 1495 1494 1493 1491 1490 1489 1487 1485 1484 1482 1480 1478 1476 1474 1473 1471 1469 1468 1465 1463 1459 1456 1454 1454 1454 1452 1449 1446 1443 1439 1436 1434 1431 1430 1428 1424 1420 1415 1411 1410 1410 1411 1410 1408 1406 1404 1403 1401 1399 1398 1396 1395 1393 1392 1390 1389 1387 1385 1384 1382 1381 1379 1378 1377 1375 1374 1372 1371 1369 1368 1367 1366 1365 1364 1363 1361 1359 1358 1356
1504 1502 1501 1499 1498 1497 1496 1494 1494 1492 1491 1489 1488 1486 1485 1483 1481 1479 1478 1476 1474 1473 1471 1469 1468 1466 1464 1461 1457 1454 1453 1452 1451 1449 1446 1443 1439 1437 1434 1432 1429 1428 1427 1424 1420 1415 1410 1407 1407 1408 1407 1405 1403 1401 1400 1398 1397 1395 1394 1392 1390 1389 1388 1386 1384 1383 1381 1379 1378 1377 1375 1374 1373 1371 1370 1369 1367 1366 1365 1364 1363 1362 1360 1358 1357 1355
1503 1502 1500 1499 1498 1497 1495 1494 1493 1492 1491 1489 1488 1487 1485 1483 1481 1479 1478 1476 1474 1473 1471 1469 1468 1466 1465 1463 1460 1457 1454 1452 1450 1448 1445 1443 1439 1437 1435 1433 1430 1428 1427 1426 1424 1422 1416 1410 1406 1404 1404 1403 1402 1400 1399 1398 1396 1394 1393 1391 1389 1388 1386 1385 1383 1381 1379 1378 1377 1375 1374 1373 1371 1370 1369 1367 1366 1365 1364 1363 1362 1361 1359 1358 1356 1355
1503 1501 1500 1499 1498 1497 1496 1495 1494 1493 1491 1490 1489 1487 1485 1484 1482 1480 1478 1477 1475 1473 1471 1469 1468 1466 1464 1463 1461 1459 1456 1454 1451 1449 1446 1443 1440 1437 1435 1433 1430 1428 1426 1425 1424 1423 1420 1414 1409 1405 1403 1402 1401 1399 1398 1397 1395 1394 1392 1390 1388 1386 1385 1384 1382 1380 1378 1376 1375 1374 1372 1371 1370 1369 1367 1366 1365 1364 1363 1362 1361 1360 1359 1357 1356 1354
1503 1502 1501 1499 1499 1498 1497 1495 1494 1493 1492 1490 1489 1487 1486 1484 1482 1481 1479 1477 1476 1474 1472 1470 1468 1466 1464 1461 1459 1458 1456 1454 1452 1449 1446 1443 1440 1437 1435 1433 1431 1428 1426 1424 1422 1420 1418 1415 1411 1407 1403 1401 1400 1399 1398 1396 1394 1393 1391 1389 1388 1385 1384 1382 1380 1378 1377 1375 1374 1372 1371 1369 1368 1367 1366 1364 1363 1362 1362 1361 1360 1359 1358 1357 1355 1354
1503 1502 1501 1500 1499 1498 1497 1496 1495 1494 1492 1491 1489 1488 1486 1484 1483 1481 1480 1478 1476 1475 1473 1471 1469 1467 1464 1462 1459 1456 1455 1454 1452 1450 1447 1444 1441 1438 1435 1434 1431 1429 1426 1424 1421 1419 1416 1413 1411 1408 1405 1401 1399 1398 1398 1396 1394 1392 1390 1389 1387 1385 1383 1381 1379 1377 1375 1374 1372 1371 1369 1368 1367 1365 1364 1363 1362 1361 1360 1359 1358 1357 1356 1356 1355 1354
1503 1503 1502 1501 1499 1499 1497 1496 1495 1494 1492 1491 1489 1488 1486 1484 1483 1482 1480 1479 1477 1475 1474 1472 1469 1467 1465 1463 1460 1457 1455 1454 1452 1450 1447 1444 1442 1439 1437 1434 1432 1430 1427 1424 1421 1419 1416 1413 1410 1408 1406 1402 1399 1396 1395 1395 1393 1391 1389 1387 1386 1384 1382 1380 1379 1377 1374 1373 1371 1370 1369 1367 1366 1364 1363 1362 1361 1360 1359 1358 1357 1356 1355 1354 1354 1353
1504 1503 1502 1500 1499 1498 1497 1496 1494 1493 1492 1490 1489 1487 1486 1484 1483 1482 1480 1479 1478 1476 1474 1472 1470 1468 1466 1463 1461 1459 1456 1454 1452 1449 1447 1445 1442 1440 1438 1435 1433 1431 1429 1425 1422 1419 1416 1413 1409 1407 1405 1403 1400 1397 1394 1393 1391 1389 1388 1386 1384 1382 1381 1379 1378 1376 1374 1372 1371 1369 1368 1366 1365 1364 1362 1361 1360 1359 1358 1357 1356 1355 1354 1353 1352 1351
1504 1502 1501 1500 1499 1498 1496 1495 1494 1492 1491 1489 1488 1487 1485 1484 1483 1481 1480 1479 1477 1476 1474 1472 1470 1468 1466 1464 1461 1459 1457 1454 1452 1450 1448 1445 1443 1440 1438 1436 1434 1432 1430 1427 1424 1420 1417 1414 1410 1407 1404 1402 1400 1398 1395 1393 1390 1388 1386 1385 1383 1382 1380 1379 1377 1375 1374 1372 1370 1369 1367 1365 1364 1362 1361 1360 1359 1357 1356 1355 1354 1353 1352 1351 1351 1350
1503 1502 1501 1499 1498 1497 1496 1494 1493 1492 1490 1489 1488 1486 1485 1484 1483 1481 1480 1479 1477 1475 1474 1472 1470 1468 1466 1464 1462 1459 1457 1455 1453 1450 1448 1445 1443 1440 1438 1436 1434 1432 1430 1427 1424 1421 1418 1415 1412 1409 1405 1401 1399 1396 1395 1393 1391 1388 1385 1383 1381 1380 1379 1378 1376 1374 1373 1371 1369 1367 1366 1364 1363 1361 1360 1359 1357 1356 1355 1353 1352 1352 1351 1349 1349 1349
1503 1502 1500 1499 1498 1496 1495 1494 1493 1491 1490 1489 1487 1486 1485 1484 1483 1481 1480 1479 1477 1475 1474 1472 1470 1469 1467 1464 1462 1460 1457 1455 1453 1450 1448 1445 1443 1441 1438 1436 1434 1431 1429 1426 1424 1421 1418 1415 1412 1409 1406 1403 1399 1396 1394 1392 1391 1389 1385 1382 1379 1378 1377 1376 1375 1374 1372 1370 1369 1367 1365 1363 1362 1361 1359 1358 1357 1356 1354 1353 1352 1351 1350 1349 1348 1347
1503 1501 1500 1499 1498 1496 1495 1494 1493 1491 1490 1488 1487 1485 1484 1483 1482 1480 1479 1478 1476 1474 1473 1470 1469 1468 1466 1465 1462 1460 1457 1455 1453 1450 1448 1445 1443 1440 1438 1435 1433 1431 1428 1426 1423 1420 1418 1414 1411 1408 1406 1403 1400 1397 1394 1392 1390 1389 1386 1384 1380 1378 1376 1375 1374 1373 1371 1369 1368 1366 1364 1363 1361 1360 1359 1357 1356 1355 1354 1353 1351 1350 1349 1349 1348 1346
1502 1501 1500 1499 1498 1496 1495 1494 1493 1491 1490 1488 1487 1485 1484 1482 1480 1479 1477 1476 1474 1472 1470 1468 1466 1465 1464 1463 1461 1459 1457 1454 1452 1449 1447 1444 1442 1440 1437 1435 1432 1430 1427 1424 1422 1419 1417 1414 1411 1408 1406 1403 1400 1396 1393 1391 1389 1388 1386 1384 1380 1377 1374 1374 1374 1373 1371 1369 1367 1365 1364 1362 1360 1359 1357 1356 1355 1354 1353 1352 1351 1350 1349 1348 1347 1346
1502 1501 1500 1499 1498 1497 1495 1494 1493 1491 1490 1488 1487 1485 1483 1482 1480 1478 1476 1474 1473 1471 1469 1467 1465 1463 1461 1459 1458 1457 1455 1453 1451 1449 1446 1444 1441 1439 1436 1434 1432 1429 1426 1424 1421 1418 1416 1414 1411 1408 1405 1403 1400 1396 1393 1390 1388 1387 1385 1384 1381 1378 1374 1372 1371 1371 1369 1368 1366 1364 1363 1361 1359 1358 1356 1355 1354 1353 1352 1351 1351 1350 1349 1348 1346 1345
1503 1501 1500 1499 1498 1497 1496 1494 1493 1491 1490 1488 1486 1485 1483 1481 1480 1478 1476 1474 1472 1470 1468 1465 1464 1461 1459 1457 1456 1454 1453 1451 1449 1448 1445 1443 1440 1438 1435 1433 1431 1428 1425 1423 1420 1417 1414 1412 1410 1408 1405 1402 1399 1396 1393 1389 1387 1385 1384 1383 1381 1380 1377 1374 1371 1369 1368 1366 1365 1364 1362 1360 1359 1357 1355 1354 1353 1352 1351 1350 1349 1348 1348 1347 1345 1344
1503 1501 1500 1499 1498 1497 1496 1494 1493 1491 1489 1488 1486 1485 1483 1482 1480 1478 1475 1473 1471 1469 1467 1465 1462 1460 1457 1455 1453 1452 1450 1449 1448 1446 1444 1442 1440 1437 1434 1432 1429 1427 1424 1422 1419 1416 1414 1411 1408 1405 1403 1401 1398 1395 1392 1389 1387 1385 1383 1382 1381 1379 1377 1374 1372 1370 1368 1366 1364 1363 1361 1359 1358 1355 1354 1352 1351 1350 1350 1349 1348 1347 1346 1345 1344 1343
1503 1502 1500 1499 1498 1497 1496 1494 1493 1491 1489 1488 1486 1485 1483 1481 1480 1478 1476 1473 1471 1469 1467 1465 1462 1459 1457 1454 1452 1449 1448 1446 1444 1443 1442 1440 1438 1436 1434 1431 1429 1426 1423 1420 1418 1416 1413 1410 1407 1404 1401 1398 1396 1394 1392 1390 1387 1385 1382 1381 1379 1377 1375 1374 1372 1370 1368 1366 1364 1362 1360 1358 1356 1354 1353 1351 1350 1349 1348 1348 1347 1346 1345 1344 1343 1342
1503 1502 1500 1499 1498 1497 1495 1494 1493 1491 1489 1488 1486 1485 1483 1481 1479 1477 1475 1473 1471 1469 1466 1464 1462 1460 1457 1454 1452 1449 1446 1444 1442 1440 1439 1438 1436 1434 1432 1430 1428 1425 1423 1420 1417 1414 1412 1409 1407 1404 1401 1398 1394 1392 1390 1389 1388 1385 1383 1380 1378 1376 1374 1373 1371 1369 1368 1366 1363 1361 1359 1357 1355 1353 1351 1350 1349 1347 1347 1346 1345 1345 1344 1343 1342 1341
1503 1501 1500 1499 1498 1497 1495 1494 1492 1491 1489 1488 1486 1485 1483 1481 1479 1477 1474 1473 1470 1468 1466 1464 1461 1459 1457 1454 1452 1449 1447 1444 1441 1439 1437 1435 1434 1432 1430 1429 1426 1424 1422 1419 1416 1413 1411 1408 1406 1404 1401 1398 1395 1392 1389 1388 1387 1385 1383 1380 1378 1375 1373 1371 1370 1368 1367 1365 1363 1361 1359 1357 1355 1353 1350 1349 1347 1346 1345 1344 1344 1343 1343 1342 1340 1339
1502 1501 1500 1499 1498 1496 1495 1493 1492 1490 1489 1487 1486 1484 1483 1481 1479 1477 1474 1472 1470 1468 1465 1463 1461 1459 1456 1454 1452 1449 1447 1444 1442 1439 1437 1434 1432 1430 1428 1426 1424 1422 1420 1418 1415 1412 1409 1407 1405 1403 1401 1399 1396 1393 1389 1388 1386 1384 1382 1380 1378 1375 1373 1370 1368 1367 1365 1363 1361 1360 1359 1357 1355 1354 1351 1349 1347 1345 1344 1343 1342 1342 1341 1340 1339 1339
1502 1501 1500 1499 1498 1496 1494 1493 1491 1490 1489 1487 1485 1484 1483 1481 1479 1477 1475 1473 1470 1468 1466 1464 1461 1458 1456 1454 1451 1449 1446 1444 1441 1439 1436 1434 1431 1429 1426 1424 1421 1419 1416 1414 1412 1410 1407 1404 1403 1402 1400 1398 1396 1394 1391 1388 1386 1384 1381 1379 1377 1375 1372 1369 1367 1365 1364 1362 1360 1358 1357 1356 1354 1353 1351 1349 1347 1344 1343 1342 1341 1340 1340 1339 1338 1338
1502 1501 1500 1499 1497 1496 1494 1493 1491 1490 1488 1487 1485 1484 1482 1480 1478 1476 1474 1472 1470 1468 1466 1464 1462 1459 1456 1454 1451 1449 1446 1444 1441 1439 1436 1434 1431 1428 1425 1423 1419 1417 1414 1411 1409 1406 1404 1401 1399 1399 1399 1399 1397 1394 1392 1389 1385 1382 1380 1378 1376 1374 1372 1369 1366 1364 1363 1361 1359 1357 1356 1354 1353 1352 1351 1349 1347 1344 1342 1340 1339 1339 1339 1338 1337 1336